THORAD AGENA D DEB, 4757

Orbit data source: Space-Track

THORAD AGENA D DEB, 4757 is space debris in SSO originally from a launch on Wed, 08 Apr 1970 UTC launched from the Air Force Western Test Range (AFWTR). Debris objects in space refer to the collection of defunct objects orbiting the Earth. Examples of debris include non-operational satellites, rocket bodies, and fragments generated from explosions, collisions, or faulty payload assembly.

Loading next visibility...
Identifier
4757, 1970-025DF
Orbit
SSO
Country
Flag of USUS
Related business
Manufacturer
Unknown
Mission
Spacecraft
Bus & Motor
Unknown
Mass
Unknown
Launch date (UTC)
1970-04-08 (56 years ago)
Launch vehicle
Unknown
Launch site
Air Force Western Test Range (AFWTR)
Object type
Payload
Rocket body
Debris
Shape & HBR
Unknown shape, 0.1 m
Radar Cross Section
Medium (>0.1 m² and <1 m²)

Expand to show TLE details & history
Last TLE update: 17 hours ago

TLE from 17 hours ago
0 THORAD AGENA D DEB
1 04757U 70025DF  26208.18400282  .00000317  00000-0  45021-3 0  9996
2 04757  99.3833  78.2229 0013350 346.9227  13.1568 13.64154312786224
Epoch: 2026-07-27T04:24Z
TLE epoch observation values (Epoch: 2026-07-27T04:24:57.843Z)
Latitude
-0.00007°
Longitude
67.11067°
Altitude
1,013.829 km
Speed
7.35 km/s
True Right ascension
05h 12m 53s
True Declination
0° 00' 00"
Sunlit
Object was in daylight at epoch
Visualization orbit readout
Latitude
Unknown
Longitude
Unknown
Altitude
Unknown
Speed
Unknown
Apparent Right ascension
Unknown
Apparent Declination
Unknown
Sunlit
N/A
Visualization observer readout
Local Sidereal Time
10:30:03
Azimuth
Unknown
Elevation
Unknown
Doppler factor
Unknown
Orbital elements
Apogee altitude
1,027.773 km
Perigee altitude
1,008.025 km
Semi-major axis
7,396.036 km
Eccentricity
0.00134
Inclination
99.3833°
RAAN
78.2229°
Arg. of periapsis
346.9227°
True anomaly
13.19168°
Mean anomaly
13.1568°
Eccentric anomaly
13.17423°
Mean motion
3.41228 °/min
Orbital period
105.5 mins
BSTAR
0.00045021
Loading maneuver chart data...
Computing Atmospheric mass density...

Documentation

Showing up to 5 results
|